| time (UTC) | temp C | wind direction | speed KPH | gust KPH | rain 1hr cm | rain 24hr cm | rain mn cm | humidity % | barometer mb |
| 20260906110826 | 18 | 338 | 0.0 | 0.0 | 0.00 | 0.00 | 0.00 | 99 | 1019.0 |
| 20260906110322 | 18 | 336 | 0.0 | 0.0 | 0.00 | 0.00 | 0.00 | 99 | 1018.8 |
| 20260906105821 | 18 | 339 | 0.0 | 0.0 | 0.00 | 0.00 | 0.00 | 99 | 1018.8 |
| 20260906105317 | 18 | 337 | 0.0 | 0.0 | 0.00 | 0.00 | 0.00 | 99 | 1018.8 |
| 20260906104813 | 18 | 337 | 0.0 | 0.0 | 0.00 | 0.00 | 0.00 | 99 | 1018.8 |
| 20260906104311 | 18 | 337 | 0.0 | 0.0 | 0.00 | 0.00 | 0.00 | 99 | 1018.8 |
| 20260906103810 | 18 | 337 | 0.0 | 0.0 | 0.00 | 0.00 | 0.00 | 99 | 1018.9 |
| 20260906103309 | 18 | 337 | 0.0 | 0.0 | 0.00 | 0.00 | 0.00 | 99 | 1018.6 |
| 20260906102805 | 18 | 337 | 0.0 | 0.0 | 0.00 | 0.00 | 0.00 | 99 | 1018.7 |
| 20260906102306 | 18 | 337 | 0.0 | 0.0 | 0.00 | 0.00 | 0.00 | 99 | 1018.7 |
| 20260906101759 | 18 | 338 | 0.0 | 0.0 | 0.00 | 0.00 | 0.00 | 99 | 1018.5 |
| 20260906101254 | 18 | 338 | 0.0 | 0.0 | 0.00 | 0.00 | 0.00 | 99 | 1018.4 |
| 20260906100749 | 18 | 338 | 0.0 | 0.0 | 0.00 | 0.00 | 0.00 | 99 | 1018.5 |
| 20260906100248 | 18 | 338 | 0.0 | 0.0 | 0.00 | 0.00 | 0.00 | 99 | 1018.4 |
| 20260906095744 | 18 | 338 | 0.0 | 0.0 | 0.00 | 0.00 | 0.00 | 99 | 1018.3 |
| 20260906095239 | 18 | 286 | 0.0 | 0.0 | 0.00 | 0.00 | 0.00 | 99 | 1018.4 |
| 20260906094738 | 18 | 279 | 0.0 | 0.0 | 0.00 | 0.00 | 0.00 | 99 | 1018.2 |
| 20260906094233 | 18 | 279 | 0.0 | 0.0 | 0.00 | 0.00 | 0.00 | 99 | 1018.2 |
| 20260906093730 | 18 | 279 | 0.0 | 0.0 | 0.00 | 0.00 | 0.00 | 99 | 1018.0 |
| 20260906093225 | 18 | 279 | 0.0 | 0.0 | 0.00 | 0.00 | 0.00 | 99 | 1018.2 |
| 20260906092721 | 18 | 279 | 0.0 | 0.0 | 0.00 | 0.00 | 0.00 | 99 | 1018.2 |
| 20260906092220 | 18 | 279 | 0.0 | 1.6 | 0.00 | 0.00 | 0.00 | 99 | 1017.9 |
| 20260906091717 | 18 | 280 | 0.0 | 0.0 | 0.00 | 0.00 | 0.00 | 99 | 1018.0 |
| 20260906091212 | 18 | 280 | 0.0 | 0.0 | 0.00 | 0.00 | 0.00 | 99 | 1018.0 |
| 20260906090708 | 18 | 280 | 0.0 | 0.0 | 0.00 | 0.00 | 0.00 | 99 | 1018.1 |
| 20260906090208 | 18 | 280 | 0.0 | 0.0 | 0.00 | 0.00 | 0.00 | 99 | 1017.9 |
| 20260906085707 | 18 | 280 | 1.6 | 3.2 | 0.00 | 0.00 | 0.00 | 99 | 1018.1 |
| 20260906085206 | 18 | 278 | 3.2 | 3.2 | 0.00 | 0.00 | 0.00 | 99 | 1018.1 |
| 20260906084701 | 18 | 280 | 0.0 | 0.0 | 0.00 | 0.00 | 0.00 | 99 | 1018.1 |
| 20260906084155 | 18 | 280 | 0.0 | 0.0 | 0.00 | 0.00 | 0.00 | 99 | 1018.0 |
| 20260906083650 | 18 | 280 | 0.0 | 0.0 | 0.00 | 0.00 | 0.00 | 99 | 1018.1 |
| 20260906083145 | 18 | 280 | 1.6 | 4.8 | 0.00 | 0.00 | 0.00 | 99 | 1018.3 |
| 20260906082640 | 18 | 285 | 3.2 | 4.8 | 0.00 | 0.00 | 0.00 | 99 | 1018.1 |
| 20260906082135 | 18 | 297 | 6.4 | 6.4 | 0.00 | 0.00 | 0.00 | 99 | 1018.2 |
| 20260906081631 | 18 | 291 | 3.2 | 4.8 | 0.00 | 0.00 | 0.00 | 99 | 1018.3 |
| 20260906081126 | 18 | 295 | 0.0 | 0.0 | 0.00 | 0.00 | 0.00 | 99 | 1018.3 |
| 20260906080623 | 18 | 296 | 0.0 | 0.0 | 0.00 | 0.00 | 0.00 | 99 | 1018.1 |
| 20260906080119 | 18 | 296 | 0.0 | 0.0 | 0.00 | 0.00 | 0.00 | 99 | 1018.1 |
| 20260906075618 | 18 | 296 | 0.0 | 3.2 | 0.00 | 0.00 | 0.00 | 99 | 1018.1 |
| 20260906075113 | 17 | 294 | 0.0 | 0.0 | 0.00 | 0.00 | 0.00 | 99 | 1018.1 |
| 20260906074608 | 17 | 294 | 0.0 | 0.0 | 0.00 | 0.00 | 0.00 | 99 | 1018.1 |
| 20260906074107 | 17 | 294 | 0.0 | 0.0 | 0.00 | 0.00 | 0.00 | 99 | 1018.0 |
| 20260906073602 | 17 | 294 | 0.0 | 0.0 | 0.00 | 0.00 | 0.00 | 99 | 1018.0 |
| 20260906073058 | 17 | 294 | 0.0 | 0.0 | 0.00 | 0.00 | 0.00 | 99 | 1018.1 |
| 20260906072552 | 17 | 294 | 0.0 | 0.0 | 0.00 | 0.00 | 0.00 | 99 | 1018.1 |
| 20260906072043 | 17 | 294 | 0.0 | 0.0 | 0.00 | 0.00 | 0.00 | 99 | 1018.3 |
| 20260906071539 | 18 | 294 | 0.0 | 0.0 | 0.00 | 0.00 | 0.00 | 99 | 1018.2 |
| 20260906071034 | 18 | 294 | 0.0 | 0.0 | 0.00 | 0.00 | 0.00 | 99 | 1018.2 |
| 20260906070531 | 18 | 294 | 0.0 | 0.0 | 0.00 | 0.00 | 0.00 | 99 | 1018.3 |
| 20260906070026 | 18 | 294 | 0.0 | 1.6 | 0.00 | 0.00 | 0.00 | 99 | 1018.4 |
| 20260906065525 | 18 | 294 | 3.2 | 3.2 | 0.00 | 0.00 | 0.00 | 99 | 1018.3 |
| 20260906065021 | 18 | 294 | 0.0 | 0.0 | 0.00 | 0.00 | 0.00 | 99 | 1018.3 |
| 20260906064517 | 18 | 294 | 0.0 | 0.0 | 0.00 | 0.00 | 0.00 | 99 | 1018.2 |
| 20260906064016 | 18 | 294 | 0.0 | 0.0 | 0.00 | 0.00 | 0.00 | 99 | 1018.3 |
| 20260906063512 | 18 | 294 | 0.0 | 0.0 | 0.00 | 0.00 | 0.00 | 99 | 1018.4 |
| 20260906063008 | 18 | 294 | 0.0 | 0.0 | 0.00 | 0.00 | 0.00 | 99 | 1018.4 |
| 20260906062502 | 18 | 294 | 0.0 | 0.0 | 0.00 | 0.00 | 0.00 | 99 | 1018.6 |
| 20260906061957 | 18 | 294 | 0.0 | 0.0 | 0.00 | 0.00 | 0.00 | 99 | 1018.8 |
| 20260906061453 | 18 | 294 | 0.0 | 0.0 | 0.00 | 0.00 | 0.00 | 99 | 1018.6 |
| 20260906060947 | 18 | 294 | 0.0 | 0.0 | 0.00 | 0.00 | 0.00 | 99 | 1018.8 |
| 20260906060444 | 18 | 294 | 0.0 | 0.0 | 0.00 | 0.00 | 0.00 | 99 | 1018.7 |
| 20260906055940 | 18 | 294 | 1.6 | 1.6 | 0.00 | 0.00 | 0.00 | 99 | 1018.8 |
| 20260906055436 | 18 | 294 | 1.6 | 1.6 | 0.00 | 0.00 | 0.00 | 99 | 1018.9 |
| 20260906054931 | 18 | 294 | 0.0 | 0.0 | 0.00 | 0.00 | 0.00 | 99 | 1018.8 |
| 20260906054426 | 18 | 294 | 0.0 | 0.0 | 0.00 | 0.00 | 0.00 | 99 | 1018.9 |
| 20260906053922 | 18 | 294 | 0.0 | 0.0 | 0.00 | 0.00 | 0.00 | 99 | 1018.9 |
| 20260906053418 | 18 | 294 | 0.0 | 0.0 | 0.00 | 0.00 | 0.00 | 99 | 1018.7 |
| 20260906052913 | 18 | 294 | 0.0 | 0.0 | 0.00 | 0.00 | 0.00 | 99 | 1018.8 |
| 20260906052409 | 18 | 294 | 0.0 | 0.0 | 0.00 | 0.00 | 0.00 | 99 | 1018.9 |
| 20260906051906 | 18 | 295 | 1.6 | 3.2 | 0.00 | 0.00 | 0.00 | 99 | 1018.6 |
| 20260906051406 | 18 | 295 | 0.0 | 0.0 | 0.00 | 0.00 | 0.00 | 99 | 1018.7 |
| 20260906050902 | 18 | 295 | 0.0 | 0.0 | 0.00 | 0.00 | 0.00 | 99 | 1018.7 |
| 20260906050356 | 18 | 295 | 0.0 | 1.6 | 0.00 | 0.00 | 0.00 | 99 | 1018.8 |
| 20260906045856 | 18 | 305 | 0.0 | 0.0 | 0.00 | 0.00 | 0.00 | 99 | 1018.6 |
| 20260906045355 | 18 | 305 | 0.0 | 0.0 | 0.00 | 0.00 | 0.00 | 99 | 1018.8 |
| 20260906044851 | 18 | 305 | 0.0 | 0.0 | 0.00 | 0.00 | 0.00 | 99 | 1018.7 |
| 20260906044351 | 18 | 305 | 0.0 | 0.0 | 0.00 | 0.00 | 0.00 | 99 | 1018.6 |
| 20260906043847 | 19 | 305 | 0.0 | 0.0 | 0.00 | 0.00 | 0.00 | 99 | 1018.6 |
| 20260906043344 | 18 | 305 | 0.0 | 0.0 | 0.00 | 0.00 | 0.00 | 99 | 1018.6 |
| 20260906042844 | 18 | 305 | 0.0 | 0.0 | 0.00 | 0.00 | 0.00 | 99 | 1018.5 |
| 20260906042342 | 19 | 305 | 0.0 | 0.0 | 0.00 | 0.00 | 0.00 | 99 | 1018.6 |
| 20260906041838 | 19 | 305 | 0.0 | 0.0 | 0.00 | 0.00 | 0.00 | 99 | 1018.9 |
| 20260906041334 | 19 | 305 | 0.0 | 0.0 | 0.00 | 0.00 | 0.00 | 99 | 1018.9 |
| 20260906040834 | 19 | 305 | 0.0 | 0.0 | 0.00 | 0.00 | 0.00 | 99 | 1018.7 |
| 20260906040329 | 19 | 305 | 0.0 | 0.0 | 0.00 | 0.00 | 0.00 | 99 | 1018.7 |
| 20260906035824 | 19 | 305 | 0.0 | 0.0 | 0.00 | 0.00 | 0.00 | 99 | 1018.9 |
| 20260906035319 | 19 | 305 | 1.6 | 1.6 | 0.00 | 0.00 | 0.00 | 99 | 1019.2 |
| 20260906034815 | 19 | 305 | 1.6 | 1.6 | 0.00 | 0.00 | 0.00 | 99 | 1019.3 |
| 20260906034314 | 19 | 305 | 1.6 | 3.2 | 0.00 | 0.00 | 0.00 | 99 | 1019.3 |
| 20260906033811 | 19 | 305 | 3.2 | 3.2 | 0.00 | 0.00 | 0.00 | 99 | 1019.3 |
| 20260906033309 | 19 | 305 | 3.2 | 3.2 | 0.00 | 0.00 | 0.00 | 99 | 1019.2 |
| 20260906032806 | 19 | 305 | 3.2 | 4.8 | 0.00 | 0.00 | 0.00 | 99 | 1019.3 |
| 20260906032305 | 19 | 284 | 3.2 | 3.2 | 0.00 | 0.00 | 0.00 | 99 | 1019.3 |
| 20260906031757 | 19 | 284 | 3.2 | 3.2 | 0.00 | 0.00 | 0.00 | 98 | 1019.3 |
| 20260906031253 | 19 | 284 | 3.2 | 3.2 | 0.00 | 0.00 | 0.00 | 98 | 1019.4 |
| 20260906030752 | 19 | 284 | 1.6 | 1.6 | 0.00 | 0.00 | 0.00 | 99 | 1019.3 |
| 20260906030247 | 19 | 284 | 0.0 | 0.0 | 0.00 | 0.00 | 0.00 | 99 | 1019.2 |
| 20260906025747 | 19 | 284 | 0.0 | 0.0 | 0.00 | 0.00 | 0.00 | 98 | 1019.3 |
| 20260906025241 | 19 | 284 | 0.0 | 0.0 | 0.00 | 0.00 | 0.00 | 98 | 1019.4 |
| 20260906024740 | 19 | 284 | 0.0 | 0.0 | 0.00 | 0.00 | 0.00 | 98 | 1019.3 |
| 20260906024239 | 19 | 284 | 0.0 | 0.0 | 0.00 | 0.00 | 0.00 | 98 | 1019.3 |
| 20260906023735 | 19 | 284 | 0.0 | 0.0 | 0.00 | 0.00 | 0.00 | 98 | 1019.4 |
| 20260906023230 | 20 | 284 | 0.0 | 0.0 | 0.00 | 0.00 | 0.00 | 97 | 1019.6 |
| 20260906022726 | 20 | 284 | 1.6 | 1.6 | 0.00 | 0.00 | 0.00 | 97 | 1019.4 |
| 20260906022221 | 20 | 284 | 1.6 | 1.6 | 0.00 | 0.00 | 0.00 | 97 | 1019.6 |
| 20260906021717 | 20 | 284 | 3.2 | 3.2 | 0.00 | 0.00 | 0.00 | 97 | 1019.3 |
| 20260906021215 | 20 | 284 | 0.0 | 0.0 | 0.00 | 0.00 | 0.00 | 97 | 1019.4 |
| 20260906020711 | 20 | 284 | 0.0 | 0.0 | 0.00 | 0.00 | 0.00 | 97 | 1019.4 |
| 20260906020206 | 20 | 284 | 0.0 | 0.0 | 0.00 | 0.00 | 0.00 | 96 | 1019.3 |
| 20260906015706 | 20 | 284 | 0.0 | 0.0 | 0.00 | 0.00 | 0.00 | 96 | 1019.3 |
| 20260906015205 | 20 | 284 | 0.0 | 1.6 | 0.00 | 0.00 | 0.00 | 95 | 1019.4 |
| 20260906014704 | 20 | 284 | 3.2 | 3.2 | 0.00 | 0.00 | 0.00 | 96 | 1019.4 |
| 20260906014200 | 20 | 284 | 0.0 | 0.0 | 0.00 | 0.00 | 0.00 | 96 | 1019.2 |
| 20260906013656 | 20 | 284 | 0.0 | 0.0 | 0.00 | 0.00 | 0.00 | 97 | 1019.3 |
| 20260906013151 | 20 | 284 | 0.0 | 0.0 | 0.00 | 0.00 | 0.00 | 96 | 1019.2 |
| 20260906012652 | 20 | 284 | 0.0 | 0.0 | 0.00 | 0.00 | 0.00 | 95 | 1019.2 |
| 20260906012151 | 20 | 284 | 0.0 | 0.0 | 0.00 | 0.00 | 0.00 | 95 | 1019.0 |
| 20260906011647 | 20 | 284 | 0.0 | 0.0 | 0.00 | 0.00 | 0.00 | 94 | 1019.0 |
| 20260906011142 | 20 | 284 | 0.0 | 0.0 | 0.00 | 0.00 | 0.00 | 94 | 1018.8 |
| 20260906010637 | 20 | 284 | 0.0 | 0.0 | 0.00 | 0.00 | 0.00 | 94 | 1018.7 |
| 20260906010134 | 20 | 284 | 0.0 | 0.0 | 0.00 | 0.00 | 0.00 | 93 | 1018.7 |
| 20260906005633 | 21 | 284 | 0.0 | 0.0 | 0.00 | 0.00 | 0.00 | 92 | 1018.8 |
| 20260906005132 | 21 | 284 | 0.0 | 0.0 | 0.00 | 0.00 | 0.00 | 91 | 1018.7 |
| 20260906004632 | 21 | 284 | 0.0 | 0.0 | 0.00 | 0.00 | 0.00 | 91 | 1018.6 |
| 20260906004121 | 21 | 284 | 0.0 | 0.0 | 0.00 | 0.00 | 0.00 | 91 | 1018.6 |
| 20260906003617 | 21 | 284 | 0.0 | 0.0 | 0.00 | 0.00 | 0.00 | 90 | 1018.3 |
| 20260906003112 | 21 | 284 | 1.6 | 1.6 | 0.00 | 0.00 | 0.00 | 90 | 1018.6 |
| 20260906002606 | 21 | 284 | 0.0 | 3.2 | 0.00 | 0.00 | 0.00 | 90 | 1018.7 |
| 20260906002101 | 21 | 284 | 1.6 | 3.2 | 0.00 | 0.00 | 0.00 | 89 | 1018.5 |
| 20260906001551 | 21 | 284 | 1.6 | 3.2 | 0.00 | 0.00 | 0.00 | 89 | 1018.5 |
| 20260906001051 | 21 | 284 | 1.6 | 3.2 | 0.00 | 0.00 | 0.00 | 88 | 1018.5 |
| 20260906000546 | 22 | 280 | 1.6 | 3.2 | 0.00 | 0.00 | 0.00 | 87 | 1018.6 |
| 20260906000041 | 22 | 278 | 3.2 | 4.8 | 0.00 | 0.00 | 0.00 | 86 | 1018.6 |
| 20260905235535 | 22 | 287 | 3.2 | 4.8 | 0.00 | 0.00 | 0.00 | 86 | 1018.5 |
| 20260905235030 | 22 | 287 | 3.2 | 3.2 | 0.00 | 0.00 | 0.00 | 85 | 1018.5 |
| 20260905234527 | 22 | 284 | 4.8 | 4.8 | 0.00 | 0.00 | 0.00 | 85 | 1018.5 |
| 20260905234026 | 22 | 301 | 3.2 | 4.8 | 0.00 | 0.00 | 0.00 | 85 | 1018.5 |
| 20260905233521 | 22 | 311 | 4.8 | 6.4 | 0.00 | 0.00 | 0.00 | 84 | 1018.4 |
| 20260905233020 | 23 | 308 | 4.8 | 9.7 | 0.00 | 0.00 | 0.00 | 83 | 1018.3 |
| 20260905232516 | 23 | 324 | 6.4 | 11.3 | 0.00 | 0.00 | 0.00 | 82 | 1018.4 |
| 20260905232012 | 23 | 301 | 9.7 | 11.3 | 0.00 | 0.00 | 0.00 | 82 | 1018.5 |
| 20260905231507 | 23 | 306 | 8.0 | 12.9 | 0.00 | 0.00 | 0.00 | 82 | 1018.5 |
| 20260905231003 | 23 | 319 | 11.3 | 12.9 | 0.00 | 0.00 | 0.00 | 81 | 1018.6 |
| 20260905230502 | 23 | 313 | 6.4 | 9.7 | 0.00 | 0.00 | 0.00 | 81 | 1018.5 |
| 20260905230000 | 23 | 314 | 6.4 | 11.3 | 0.00 | 0.00 | 0.00 | 80 | 1018.6 |
| 20260905225455 | 23 | 334 | 6.4 | 11.3 | 0.00 | 0.00 | 0.00 | 79 | 1018.7 |
| 20260905224951 | 23 | 325 | 8.0 | 11.3 | 0.00 | 0.00 | 0.00 | 79 | 1018.6 |
| 20260905224446 | 24 | 315 | 8.0 | 12.9 | 0.00 | 0.00 | 0.00 | 79 | 1018.4 |
| 20260905223944 | 24 | 328 | 3.2 | 6.4 | 0.00 | 0.00 | 0.00 | 78 | 1018.7 |
| 20260905223443 | 24 | 315 | 4.8 | 11.3 | 0.00 | 0.00 | 0.00 | 79 | 1018.7 |
| 20260905222938 | 25 | 325 | 11.3 | 14.5 | 0.00 | 0.00 | 0.00 | 76 | 1018.6 |
| 20260905222437 | 25 | 315 | 6.4 | 14.5 | 0.00 | 0.00 | 0.00 | 75 | 1018.5 |
| 20260905221933 | 25 | 317 | 6.4 | 9.7 | 0.00 | 0.00 | 0.00 | 76 | 1018.4 |
| 20260905221429 | 25 | 345 | 6.4 | 11.3 | 0.00 | 0.00 | 0.00 | 75 | 1018.4 |
| 20260905220926 | 26 | 338 | 3.2 | 6.4 | 0.00 | 0.00 | 0.00 | 75 | 1018.2 |
| 20260905220421 | 26 | 341 | 8.0 | 9.7 | 0.00 | 0.00 | 0.00 | 74 | 1018.2 |
| 20260905215920 | 25 | 343 | 9.7 | 11.3 | 0.00 | 0.00 | 0.00 | 75 | 1018.4 |
| 20260905215416 | 26 | 344 | 9.7 | 12.9 | 0.00 | 0.00 | 0.00 | 73 | 1018.1 |
| 20260905214912 | 26 | 337 | 3.2 | 6.4 | 0.00 | 0.00 | 0.00 | 73 | 1018.1 |
| 20260905214408 | 26 | 346 | 6.4 | 6.4 | 0.00 | 0.00 | 0.00 | 71 | 1018.1 |
| 20260905213908 | 26 | 343 | 6.4 | 9.7 | 0.00 | 0.00 | 0.00 | 71 | 1018.0 |
| 20260905213404 | 25 | 327 | 3.2 | 4.8 | 0.00 | 0.00 | 0.00 | 74 | 1017.9 |
| 20260905212859 | 26 | 333 | 4.8 | 6.4 | 0.00 | 0.00 | 0.00 | 73 | 1017.9 |
| 20260905212354 | 26 | 352 | 6.4 | 9.7 | 0.00 | 0.00 | 0.00 | 70 | 1018.0 |
| 20260905211853 | 26 | 355 | 4.8 | 6.4 | 0.00 | 0.00 | 0.00 | 69 | 1017.9 |
| 20260905211349 | 26 | 27 | 6.4 | 11.3 | 0.00 | 0.00 | 0.00 | 71 | 1017.7 |
| 20260905210845 | 26 | 326 | 6.4 | 12.9 | 0.00 | 0.00 | 0.00 | 72 | 1017.9 |
| 20260905210345 | 26 | 329 | 6.4 | 11.3 | 0.00 | 0.00 | 0.00 | 71 | 1017.9 |
| 20260905205839 | 26 | 344 | 4.8 | 9.7 | 0.00 | 0.00 | 0.00 | 71 | 1017.7 |
| 20260905205338 | 26 | 358 | 4.8 | 6.4 | 0.00 | 0.00 | 0.00 | 69 | 1017.6 |
| 20260905204833 | 26 | 328 | 3.2 | 12.9 | 0.00 | 0.00 | 0.00 | 68 | 1018.0 |
| 20260905204329 | 26 | 340 | 6.4 | 12.9 | 0.00 | 0.00 | 0.00 | 70 | 1017.6 |
| 20260905203827 | 26 | 311 | 9.7 | 14.5 | 0.00 | 0.00 | 0.00 | 68 | 1017.6 |
| 20260905203324 | 26 | 347 | 8.0 | 17.7 | 0.00 | 0.00 | 0.00 | 66 | 1017.7 |
| 20260905202819 | 26 | 306 | 9.7 | 12.9 | 0.00 | 0.00 | 0.00 | 73 | 1017.6 |
| 20260905202314 | 26 | 316 | 9.7 | 14.5 | 0.00 | 0.00 | 0.00 | 72 | 1017.6 |
| 20260905201809 | 26 | 327 | 9.7 | 11.3 | 0.00 | 0.00 | 0.00 | 69 | 1018.0 |
| 20260905201304 | 26 | 340 | 6.4 | 12.9 | 0.00 | 0.00 | 0.00 | 72 | 1017.9 |
| 20260905200759 | 26 | 347 | 6.4 | 11.3 | 0.00 | 0.00 | 0.00 | 72 | 1017.7 |
| 20260905200255 | 26 | 305 | 11.3 | 16.1 | 0.00 | 0.00 | 0.00 | 72 | 1018.0 |
| 20260905195752 | 26 | 329 | 11.3 | 14.5 | 0.00 | 0.00 | 0.00 | 72 | 1017.9 |
| 20260905195248 | 26 | 300 | 8.0 | 12.9 | 0.00 | 0.00 | 0.00 | 73 | 1017.7 |
| 20260905194744 | 26 | 333 | 9.7 | 20.9 | 0.00 | 0.00 | 0.00 | 76 | 1018.0 |
| 20260905194243 | 26 | 323 | 9.7 | 16.1 | 0.00 | 0.00 | 0.00 | 76 | 1018.1 |
| 20260905193742 | 26 | 339 | 9.7 | 12.9 | 0.00 | 0.00 | 0.00 | 77 | 1018.2 |
| 20260905193237 | 26 | 321 | 6.4 | 16.1 | 0.00 | 0.00 | 0.00 | 78 | 1018.3 |
| 20260905192733 | 26 | 322 | 9.7 | 14.5 | 0.00 | 0.00 | 0.00 | 76 | 1018.3 |
| 20260905192229 | 26 | 319 | 8.0 | 17.7 | 0.00 | 0.00 | 0.00 | 75 | 1018.3 |
| 20260905191728 | 26 | 310 | 9.7 | 12.9 | 0.00 | 0.00 | 0.00 | 75 | 1018.2 |
| 20260905191227 | 26 | 314 | 14.5 | 17.7 | 0.00 | 0.00 | 0.00 | 77 | 1018.4 |
| 20260905190726 | 26 | 309 | 14.5 | 20.9 | 0.00 | 0.00 | 0.00 | 77 | 1018.6 |
| 20260905190224 | 26 | 318 | 9.7 | 14.5 | 0.00 | 0.00 | 0.00 | 77 | 1018.9 |
| 20260905185723 | 26 | 316 | 9.7 | 17.7 | 0.00 | 0.00 | 0.00 | 76 | 1018.7 |
| 20260905185218 | 26 | 289 | 8.0 | 16.1 | 0.00 | 0.00 | 0.00 | 81 | 1018.7 |
| 20260905184713 | 26 | 289 | 8.0 | 9.7 | 0.00 | 0.00 | 0.00 | 82 | 1018.8 |
| 20260905184212 | 25 | 309 | 6.4 | 12.9 | 0.00 | 0.00 | 0.00 | 83 | 1018.9 |
| 20260905183711 | 25 | 333 | 3.2 | 4.8 | 0.00 | 0.00 | 0.00 | 83 | 1018.8 |
| 20260905183207 | 25 | 290 | 3.2 | 3.2 | 0.00 | 0.00 | 0.00 | 83 | 1018.9 |
| 20260905182706 | 25 | 306 | 8.0 | 11.3 | 0.00 | 0.00 | 0.00 | 85 | 1019.2 |
| 20260905182206 | 25 | 322 | 0.0 | 9.7 | 0.00 | 0.00 | 0.00 | 84 | 1018.9 |
| 20260905181702 | 25 | 289 | 6.4 | 12.9 | 0.00 | 0.00 | 0.00 | 86 | 1019.0 |
| 20260905181200 | 25 | 344 | 3.2 | 6.4 | 0.00 | 0.00 | 0.00 | 82 | 1019.0 |
| 20260905180655 | 25 | 353 | 3.2 | 4.8 | 0.00 | 0.00 | 0.00 | 83 | 1019.4 |
| 20260905180151 | 24 | 5 | 6.4 | 11.3 | 0.00 | 0.00 | 0.00 | 90 | 1019.4 |
| 20260905175649 | 24 | 354 | 12.9 | 12.9 | 0.00 | 0.00 | 0.00 | 88 | 1019.4 |
| 20260905175145 | 24 | 309 | 6.4 | 9.7 | 0.00 | 0.00 | 0.00 | 90 | 1019.5 |
| 20260905174641 | 24 | 297 | 8.0 | 9.7 | 0.00 | 0.00 | 0.00 | 90 | 1019.6 |
| 20260905174136 | 23 | 299 | 3.2 | 4.8 | 0.00 | 0.00 | 0.00 | 92 | 1019.6 |
| 20260905173632 | 23 | 261 | 8.0 | 11.3 | 0.00 | 0.00 | 0.00 | 92 | 1019.8 |
| 20260905173128 | 22 | 288 | 4.8 | 9.7 | 0.00 | 0.00 | 0.00 | 94 | 1019.9 |
| 20260905172626 | 22 | 280 | 3.2 | 4.8 | 0.00 | 0.00 | 0.00 | 95 | 1019.9 |
| 20260905172121 | 22 | 301 | 4.8 | 6.4 | 0.00 | 0.00 | 0.00 | 96 | 1020.1 |
| 20260905171618 | 22 | 295 | 6.4 | 9.7 | 0.00 | 0.00 | 0.00 | 95 | 1019.8 |
| 20260905171113 | 22 | 287 | 8.0 | 11.3 | 0.00 | 0.00 | 0.00 | 95 | 1019.9 |
| 20260905170610 | 22 | 308 | 4.8 | 6.4 | 0.00 | 0.00 | 0.00 | 94 | 1020.0 |
| 20260905170105 | 22 | 326 | 6.4 | 9.7 | 0.00 | 0.00 | 0.00 | 93 | 1019.9 |
| 20260905165605 | 22 | 313 | 6.4 | 11.3 | 0.00 | 0.00 | 0.00 | 94 | 1019.9 |
| 20260905165100 | 22 | 277 | 3.2 | 6.4 | 0.00 | 0.00 | 0.00 | 93 | 1019.9 |
| 20260905164555 | 22 | 282 | 4.8 | 11.3 | 0.00 | 0.00 | 0.00 | 93 | 1019.8 |
| 20260905164049 | 22 | 172 | 1.6 | 9.7 | 0.00 | 0.00 | 0.00 | 94 | 1019.8 |
| 20260905163546 | 22 | 231 | 6.4 | 9.7 | 0.00 | 0.00 | 0.00 | 94 | 1019.7 |
| 20260905163042 | 22 | 174 | 4.8 | 9.7 | 0.00 | 0.00 | 0.00 | 95 | 1019.5 |
| 20260905162538 | 22 | 220 | 3.2 | 9.7 | 0.00 | 0.00 | 0.00 | 95 | 1019.6 |
| 20260905162032 | 21 | 211 | 3.2 | 6.4 | 0.00 | 0.00 | 0.00 | 96 | 1019.8 |
| 20260905161531 | 21 | 204 | 6.4 | 9.7 | 0.00 | 0.00 | 0.00 | 95 | 1019.8 |
| 20260905161029 | 21 | 241 | 3.2 | 3.2 | 0.00 | 0.00 | 0.00 | 95 | 1020.2 |
| 20260905160528 | 21 | 198 | 4.8 | 4.8 | 0.00 | 0.00 | 0.00 | 94 | 1020.1 |
| 20260905160028 | 21 | 220 | 0.0 | 1.6 | 0.00 | 0.00 | 0.00 | 94 | 1020.4 |
| 20260905155528 | 21 | 220 | 4.8 | 4.8 | 0.00 | 0.00 | 0.00 | 93 | 1020.8 |
| 20260905155026 | 21 | 272 | 1.6 | 3.2 | 0.00 | 0.00 | 0.00 | 95 | 1020.9 |
| 20260905154522 | 21 | 299 | 3.2 | 4.8 | 0.00 | 0.00 | 0.00 | 94 | 1021.1 |
| 20260905154018 | 21 | 306 | 6.4 | 6.4 | 0.00 | 0.00 | 0.00 | 94 | 1021.2 |
| 20260905153514 | 21 | 355 | 3.2 | 6.4 | 0.00 | 0.00 | 0.00 | 95 | 1021.3 |
| 20260905153013 | 21 | 353 | 6.4 | 9.7 | 0.00 | 0.00 | 0.00 | 94 | 1021.2 |
| 20260905152513 | 21 | 318 | 6.4 | 6.4 | 0.00 | 0.00 | 0.00 | 96 | 1021.5 |
| 20260905152008 | 21 | 326 | 6.4 | 6.4 | 0.00 | 0.00 | 0.00 | 97 | 1021.4 |
| 20260905151504 | 21 | 320 | 4.8 | 11.3 | 0.00 | 0.00 | 0.00 | 98 | 1021.7 |
| 20260905150959 | 21 | 321 | 3.2 | 9.7 | 0.00 | 0.00 | 0.00 | 99 | 1021.6 |
| 20260905150453 | 20 | 335 | 4.8 | 6.4 | 0.00 | 0.00 | 0.00 | 99 | 1021.6 |
| 20260905145950 | 20 | 305 | 6.4 | 6.4 | 0.00 | 0.00 | 0.00 | 99 | 1021.6 |
| 20260905145445 | 20 | 340 | 6.4 | 9.7 | 0.00 | 0.00 | 0.00 | 99 | 1021.4 |
| 20260905144944 | 19 | 341 | 3.2 | 4.8 | 0.00 | 0.00 | 0.00 | 99 | 1021.5 |
| 20260905144440 | 19 | 8 | 0.0 | 4.8 | 0.00 | 0.00 | 0.00 | 99 | 1021.2 |
| 20260905143939 | 19 | 308 | 0.0 | 1.6 | 0.00 | 0.00 | 0.00 | 99 | 1021.7 |
| 20260905143432 | 19 | 299 | 1.6 | 3.2 | 0.00 | 0.00 | 0.00 | 99 | 1021.6 |
| 20260905142927 | 19 | 5 | 0.0 | 4.8 | 0.00 | 0.00 | 0.00 | 99 | 1021.8 |
| 20260905142426 | 19 | 9 | 3.2 | 9.7 | 0.00 | 0.00 | 0.00 | 99 | 1021.5 |
| 20260905141921 | 19 | 3 | 3.2 | 6.4 | 0.00 | 0.00 | 0.00 | 99 | 1021.6 |
| 20260905141416 | 20 | 44 | 4.8 | 11.3 | 0.00 | 0.00 | 0.00 | 97 | 1021.2 |
| 20260905140913 | 20 | 44 | 4.8 | 11.3 | 0.00 | 0.00 | 0.00 | 97 | 1021.2 |
| 20260905140408 | 20 | 346 | 3.2 | 11.3 | 0.00 | 0.00 | 0.00 | 97 | 1021.5 |
| 20260905135906 | 20 | 53 | 9.7 | 14.5 | 0.00 | 0.00 | 0.00 | 98 | 1021.4 |
| 20260905135402 | 22 | 295 | 1.6 | 4.8 | 0.00 | 0.00 | 0.00 | 95 | 1020.2 |
| 20260905134858 | 22 | 313 | 4.8 | 6.4 | 0.00 | 0.00 | 0.00 | 95 | 1020.6 |
| 20260905134356 | 22 | 282 | 4.8 | 6.4 | 0.00 | 0.00 | 0.00 | 95 | 1020.2 |
| 20260905133850 | 22 | 293 | 6.4 | 6.4 | 0.00 | 0.00 | 0.00 | 94 | 1020.1 |
| 20260905133346 | 22 | 301 | 6.4 | 9.7 | 0.00 | 0.00 | 0.00 | 94 | 1020.2 |
| 20260905132845 | 22 | 269 | 8.0 | 11.3 | 0.00 | 0.00 | 0.00 | 93 | 1020.1 |
| 20260905132340 | 23 | 310 | 6.4 | 6.4 | 0.00 | 0.00 | 0.00 | 92 | 1020.2 |
| 20260905131835 | 23 | 297 | 6.4 | 9.7 | 0.00 | 0.00 | 0.00 | 91 | 1020.1 |
| 20260905131330 | 23 | 275 | 4.8 | 6.4 | 0.00 | 0.00 | 0.00 | 91 | 1020.1 |
| 20260905130826 | 23 | 281 | 3.2 | 6.4 | 0.00 | 0.00 | 0.00 | 91 | 1020.2 |
| 20260905130324 | 23 | 282 | 3.2 | 4.8 | 0.00 | 0.00 | 0.00 | 90 | 1020.1 |
| 20260905125820 | 23 | 276 | 0.0 | 0.0 | 0.00 | 0.00 | 0.00 | 94 | 1020.0 |
| 20260905125315 | 22 | 276 | 0.0 | 0.0 | 0.00 | 0.00 | 0.00 | 98 | 1020.2 |
| 20260905124811 | 21 | 277 | 0.0 | 1.6 | 0.00 | 0.00 | 0.00 | 99 | 1020.1 |
| 20260905124307 | 21 | 285 | 0.0 | 0.0 | 0.00 | 0.00 | 0.00 | 99 | 1020.2 |
| 20260905123801 | 21 | 285 | 0.0 | 0.0 | 0.00 | 0.00 | 0.00 | 99 | 1020.2 |
| 20260905123259 | 20 | 285 | 0.0 | 0.0 | 0.00 | 0.00 | 0.00 | 99 | 1019.9 |
| 20260905122758 | 20 | 285 | 0.0 | 0.0 | 0.00 | 0.00 | 0.00 | 99 | 1020.1 |
| 20260905122257 | 20 | 289 | 0.0 | 0.0 | 0.00 | 0.00 | 0.00 | 99 | 1020.3 |
| 20260905121753 | 20 | 297 | 0.0 | 0.0 | 0.00 | 0.00 | 0.00 | 99 | 1020.1 |
| 20260905121249 | 20 | 297 | 0.0 | 0.0 | 0.00 | 0.00 | 0.00 | 99 | 1019.8 |
| 20260905120747 | 19 | 297 | 0.0 | 0.0 | 0.00 | 0.00 | 0.00 | 99 | 1019.7 |
| 20260905120242 | 19 | 297 | 0.0 | 0.0 | 0.00 | 0.00 | 0.00 | 99 | 1020.1 |
| 20260905115737 | 19 | 297 | 0.0 | 0.0 | 0.00 | 0.00 | 0.00 | 99 | 1019.8 |
| 20260905115237 | 19 | 297 | 0.0 | 3.2 | 0.00 | 0.00 | 0.00 | 99 | 1019.9 |
| 20260905114732 | 18 | 296 | 1.6 | 3.2 | 0.00 | 0.00 | 0.00 | 99 | 1019.7 |
| 20260905114230 | 18 | 296 | 0.0 | 1.6 | 0.00 | 0.00 | 0.00 | 99 | 1019.9 |
| 20260905113729 | 18 | 295 | 0.0 | 0.0 | 0.00 | 0.00 | 0.00 | 99 | 1019.6 |
| 20260905113225 | 18 | 317 | 0.0 | 0.0 | 0.00 | 0.00 | 0.00 | 99 | 1019.9 |
| 20260905112726 | 18 | 317 | 0.0 | 0.0 | 0.00 | 0.00 | 0.00 | 99 | 1019.8 |
| 20260905112221 | 18 | 317 | 0.0 | 0.0 | 0.00 | 0.00 | 0.00 | 99 | 1019.9 |
| 20260905111720 | 18 | 317 | 0.0 | 0.0 | 0.00 | 0.00 | 0.00 | 99 | 1019.8 |